| time (UTC) | temp F | wind direction | speed knots | gust knots | rain 1hr in | rain 24hr in | rain mn in | humidity % | barometer mb |
| 20260502235124 | 96 | 146 | 9.6 | 16.5 | 7.58 | 0.00 | 0.00 | 96 | 10.7 |
| 20260502234528 | 96 | 142 | 9.6 | 13.9 | 7.66 | 0.00 | 0.00 | 96 | 10.7 |
| 20260502234028 | 96 | 130 | 10.4 | 15.6 | 7.61 | 0.00 | 0.00 | 96 | 10.4 |
| 20260502233530 | 96 | 131 | 9.6 | 14.8 | 7.58 | 0.00 | 0.00 | 96 | 10.6 |
| 20260502233050 | 96 | 133 | 8.7 | 15.6 | 7.73 | 0.00 | 0.00 | 96 | 10.6 |
| 20260502232555 | 96 | 137 | 8.7 | 13.0 | 7.69 | 0.00 | 0.00 | 96 | 10.2 |
| 20260502232120 | 96 | 131 | 8.7 | 14.8 | 7.78 | 0.00 | 0.00 | 96 | 10.0 |
| 20260502231528 | 96 | 142 | 7.8 | 13.0 | 7.95 | 0.00 | 0.00 | 96 | 10.5 |
| 20260502231048 | 96 | 146 | 9.6 | 13.9 | 8.23 | 0.00 | 0.00 | 96 | 10.5 |
| 20260502230531 | 96 | 131 | 9.6 | 16.5 | 8.46 | 0.00 | 0.00 | 96 | 10.4 |
| 20260502230029 | 96 | 127 | 9.6 | 14.8 | 8.55 | 0.00 | 0.00 | 96 | 10.4 |
| 20260502225609 | 96 | 127 | 9.6 | 13.9 | 8.74 | 0.00 | 0.00 | 96 | 10.5 |
| 20260502225123 | 96 | 118 | 11.3 | 16.5 | 8.87 | 0.00 | 0.00 | 96 | 10.4 |
| 20260502224529 | 96 | 141 | 8.7 | 15.6 | 8.93 | 0.00 | 0.00 | 96 | 10.5 |
| 20260502224049 | 96 | 127 | 8.7 | 15.6 | 9.24 | 0.00 | 0.00 | 96 | 10.2 |
| 20260502223552 | 96 | 131 | 8.7 | 15.6 | 9.46 | 0.00 | 0.00 | 96 | 10.3 |
| 20260502223036 | 96 | 135 | 7.8 | 15.6 | 9.49 | 0.00 | 0.00 | 96 | 10.5 |
| 20260502222649 | 96 | 140 | 9.6 | 14.8 | 9.81 | 0.00 | 0.00 | 96 | 10.6 |
| 20260502222126 | 96 | 144 | 9.6 | 14.8 | 9.87 | 0.00 | 0.00 | 96 | 10.9 |
| 20260502221528 | 96 | 140 | 8.7 | 16.5 | 9.88 | 0.00 | 0.00 | 96 | 10.6 |
| 20260502221112 | 96 | 154 | 8.7 | 14.8 | 9.97 | 0.00 | 0.00 | 96 | 10.6 |
| 20260502220555 | 96 | 139 | 8.7 | 13.9 | 1.00 | 0.00 | 0.00 | 96 | 10.5 |
| 20260502220026 | 96 | 142 | 10.4 | 15.6 | 1.02 | 0.00 | 0.00 | 96 | 10.0 |
| 20260502215556 | 96 | 140 | 10.4 | 16.5 | 1.03 | 0.00 | 0.00 | 96 | 9.6 |
| 20260502215057 | 96 | 136 | 9.6 | 15.6 | 1.04 | 0.00 | 0.00 | 96 | 9.6 |
| 20260502214528 | 95 | 131 | 9.6 | 16.5 | 1.06 | 0.00 | 0.00 | 95 | 9.2 |
| 20260502214052 | 95 | 138 | 10.4 | 15.6 | 1.06 | 0.00 | 0.00 | 96 | 9.3 |
| 20260502213528 | 96 | 146 | 9.6 | 15.6 | 1.09 | 0.00 | 0.00 | 96 | 9.5 |
| 20260502213028 | 95 | 132 | 10.4 | 17.4 | 1.12 | 0.00 | 0.00 | 95 | 9.2 |
| 20260502212644 | 95 | 127 | 9.6 | 15.6 | 1.12 | 0.00 | 0.00 | 95 | 9.1 |
| 20260502212119 | 95 | 123 | 10.4 | 17.4 | 1.13 | 0.00 | 0.00 | 96 | 8.8 |
| 20260502211528 | 96 | 132 | 10.4 | 17.4 | 1.15 | 0.00 | 0.00 | 96 | 8.9 |
| 20260502211112 | 96 | 146 | 9.6 | 15.6 | 1.16 | 0.00 | 0.00 | 96 | 9.0 |
| 20260502210532 | 96 | 131 | 7.8 | 13.9 | 1.17 | 0.00 | 0.00 | 96 | 8.8 |
| 20260502210050 | 96 | 121 | 9.6 | 15.6 | 1.17 | 0.00 | 0.00 | 96 | 8.9 |
| 20260502205614 | 95 | 121 | 8.7 | 13.9 | 1.17 | 0.00 | 0.00 | 95 | 8.8 |
| 20260502205123 | 95 | 145 | 8.7 | 16.5 | 1.17 | 0.00 | 0.00 | 95 | 9.1 |
| 20260502204530 | 95 | 142 | 8.7 | 14.8 | 1.17 | 0.00 | 0.00 | 95 | 9.0 |
| 20260502204111 | 96 | 136 | 8.7 | 15.6 | 1.18 | 0.00 | 0.00 | 96 | 9.3 |
| 20260502203530 | 95 | 139 | 8.7 | 13.9 | 1.18 | 0.00 | 0.00 | 95 | 9.3 |
| 20260502203052 | 96 | 124 | 8.7 | 13.9 | 1.17 | 0.00 | 0.00 | 96 | 9.0 |
| 20260502202613 | 96 | 139 | 7.8 | 13.9 | 1.17 | 0.00 | 0.00 | 96 | 9.4 |
| 20260502202058 | 96 | 147 | 7.8 | 12.2 | 1.17 | 0.00 | 0.00 | 96 | 9.5 |
| 20260502201554 | 96 | 132 | 7.8 | 12.2 | 1.18 | 0.00 | 0.00 | 96 | 8.8 |
| 20260502201050 | 96 | 152 | 7.0 | 13.0 | 1.17 | 0.00 | 0.00 | 96 | 8.9 |
| 20260502200555 | 96 | 145 | 4.3 | 13.0 | 1.17 | 0.00 | 0.00 | 96 | 9.2 |
| 20260502200039 | 96 | 130 | 7.8 | 13.9 | 1.17 | 0.00 | 0.00 | 96 | 8.8 |
| 20260502195648 | 95 | 160 | 5.2 | 13.0 | 1.17 | 0.00 | 0.00 | 95 | 8.8 |
| 20260502195126 | 95 | 144 | 7.0 | 10.4 | 1.18 | 0.00 | 0.00 | 95 | 8.8 |
| 20260502194529 | 96 | 130 | 7.0 | 12.2 | 1.19 | 0.00 | 0.00 | 96 | 8.8 |
| 20260502194031 | 97 | 147 | 7.8 | 14.8 | 1.19 | 0.00 | 0.00 | 97 | 9.2 |
| 20260502193550 | 96 | 127 | 7.8 | 12.2 | 1.18 | 0.00 | 0.00 | 96 | 9.2 |
| 20260502193051 | 96 | 191 | 5.2 | 12.2 | 1.18 | 0.00 | 0.00 | 96 | 9.8 |
| 20260502192632 | 96 | 155 | 1.7 | 3.5 | 1.18 | 0.00 | 0.00 | 96 | 9.9 |
| 20260502192116 | 95 | 91 | 6.1 | 9.6 | 1.18 | 0.00 | 0.00 | 95 | 10.3 |
| 20260502191550 | 94 | 215 | 4.3 | 7.0 | 1.17 | 0.00 | 0.00 | 94 | 10.7 |
| 20260502191109 | 95 | 180 | 3.5 | 8.7 | 1.17 | 0.00 | 0.00 | 95 | 10.5 |
| 20260502190532 | 95 | 202 | 4.3 | 6.1 | 1.16 | 0.00 | 0.00 | 95 | 10.2 |
| 20260502190031 | 95 | 134 | 3.5 | 7.0 | 1.14 | 0.00 | 0.00 | 95 | 10.3 |
| 20260502185622 | 94 | 192 | 3.5 | 5.2 | 1.14 | 0.00 | 0.00 | 94 | 10.1 |
| 20260502185125 | 95 | 168 | 5.2 | 8.7 | 1.12 | 0.00 | 0.00 | 95 | 10.0 |
| 20260502184530 | 94 | 204 | 3.5 | 7.0 | 1.11 | 0.00 | 0.00 | 94 | 10.7 |
| 20260502184028 | 94 | 242 | 3.5 | 6.1 | 1.11 | 0.00 | 0.00 | 94 | 10.5 |
| 20260502183553 | 94 | 216 | 4.3 | 8.7 | 1.10 | 0.00 | 0.00 | 94 | 10.5 |
| 20260502183032 | 94 | 191 | 3.5 | 6.1 | 1.09 | 0.00 | 0.00 | 94 | 9.8 |
| 20260502182125 | 93 | 215 | 4.3 | 7.0 | 1.05 | 0.00 | 0.00 | 93 | 9.9 |
| 20260502181529 | 93 | 270 | 3.5 | 6.1 | 1.04 | 0.00 | 0.00 | 93 | 10.4 |
| 20260502181050 | 92 | 291 | 2.6 | 4.3 | 1.04 | 0.00 | 0.00 | 92 | 10.9 |
| 20260502180552 | 92 | 292 | 2.6 | 4.3 | 1.03 | 0.00 | 0.00 | 92 | 11.3 |
| 20260502164031 | 86 | 304 | 3.5 | 5.2 | 7.97 | 0.00 | 0.00 | 86 | 26.0 |
| 20260502163531 | 85 | 305 | 2.6 | 4.3 | 7.77 | 0.00 | 0.00 | 85 | 29.2 |
| 20260502163118 | 85 | 299 | 2.6 | 3.5 | 7.56 | 0.00 | 0.00 | 85 | 29.2 |
| 20260502162704 | 84 | 316 | 3.5 | 5.2 | 7.35 | 0.00 | 0.00 | 84 | 25.8 |
| 20260502162128 | 84 | 326 | 3.5 | 6.1 | 7.14 | 0.00 | 0.00 | 84 | 25.9 |
| 20260502161551 | 83 | 326 | 3.5 | 6.1 | 6.93 | 0.00 | 0.00 | 83 | 27.7 |
| 20260502161051 | 83 | 310 | 2.6 | 5.2 | 6.71 | 0.00 | 0.00 | 83 | 29.1 |
| 20260502160529 | 82 | 313 | 2.6 | 4.3 | 6.49 | 0.00 | 0.00 | 82 | 29.6 |
| 20260502152131 | 76 | 343 | 1.7 | 4.3 | 4.46 | 0.00 | 0.00 | 76 | 39.4 |
| 20260502151529 | 75 | 340 | 1.7 | 2.6 | 4.23 | 0.00 | 0.00 | 75 | 41.2 |
| 20260502151050 | 74 | 343 | 2.6 | 4.3 | 4.00 | 0.00 | 0.00 | 74 | 42.7 |
| 20260502150530 | 73 | 327 | 2.6 | 4.3 | 3.77 | 0.00 | 0.00 | 73 | 44.3 |
| 20260502130534 | 68 | 282 | 2.6 | 3.5 | 7.01 | 0.00 | 0.00 | 68 | 49.4 |
| 20260502123602 | 68 | 310 | 2.6 | 3.5 | 5.49 | 0.00 | 0.00 | 68 | 48.2 |
| 20260502123132 | 67 | 301 | 3.5 | 3.5 | 5.52 | 0.00 | 0.00 | 67 | 48.2 |
| 20260502122710 | 67 | 275 | 2.6 | 3.5 | 5.58 | 0.00 | 0.00 | 67 | 49.2 |
| 20260502122159 | 68 | 282 | 3.5 | 4.3 | 5.58 | 0.00 | 0.00 | 68 | 47.6 |
| 20260502121552 | 69 | 286 | 3.5 | 5.2 | 5.58 | 0.00 | 0.00 | 68 | 46.0 |
| 20260502121114 | 68 | 293 | 2.6 | 3.5 | 5.58 | 0.00 | 0.00 | 68 | 46.5 |
| 20260502120555 | 68 | 312 | 3.5 | 5.2 | 5.58 | 0.00 | 0.00 | 68 | 45.9 |
| 20260502120105 | 67 | 299 | 2.6 | 4.3 | 5.58 | 0.00 | 0.00 | 66 | 48.3 |
| 20260502115706 | 66 | 295 | 2.6 | 3.5 | 5.58 | 0.00 | 0.00 | 66 | 48.8 |
| 20260502115143 | 68 | 313 | 3.5 | 5.2 | 5.58 | 0.00 | 0.00 | 68 | 45.5 |
| 20260502114614 | 69 | 331 | 3.5 | 5.2 | 5.58 | 0.00 | 0.00 | 69 | 43.9 |
| 20260502114031 | 70 | 342 | 1.7 | 4.3 | 5.58 | 0.00 | 0.00 | 70 | 42.8 |
| 20260502113611 | 71 | 1 | 1.7 | 4.3 | 5.59 | 0.00 | 0.00 | 71 | 42.2 |
| 20260502113158 | 71 | 0 | 2.6 | 4.3 | 5.56 | 0.00 | 0.00 | 71 | 41.5 |
| 20260502112717 | 70 | 15 | 0.9 | 2.6 | 5.50 | 0.00 | 0.00 | 70 | 42.7 |
| 20260502112202 | 71 | 238 | 0.0 | 0.9 | 5.50 | 0.00 | 0.00 | 71 | 43.0 |
| 20260502111551 | 71 | 341 | 0.9 | 1.7 | 5.50 | 0.00 | 0.00 | 71 | 42.3 |
| 20260502111134 | 70 | 17 | 0.9 | 2.6 | 5.53 | 0.00 | 0.00 | 70 | 44.6 |
| 20260502110741 | 71 | 41 | 0.9 | 1.7 | 5.53 | 0.00 | 0.00 | 71 | 43.0 |
| 20260502110143 | 71 | 280 | 2.6 | 3.5 | 5.53 | 0.00 | 0.00 | 71 | 44.3 |
| 20260502105700 | 71 | 236 | 2.6 | 3.5 | 5.53 | 0.00 | 0.00 | 71 | 45.4 |
| 20260502105145 | 72 | 294 | 2.6 | 3.5 | 5.53 | 0.00 | 0.00 | 72 | 41.8 |
| 20260502104551 | 72 | 306 | 2.6 | 3.5 | 5.53 | 0.00 | 0.00 | 72 | 42.9 |
| 20260502104110 | 72 | 286 | 2.6 | 2.6 | 5.53 | 0.00 | 0.00 | 72 | 43.4 |
| 20260502103552 | 73 | 295 | 2.6 | 2.6 | 5.53 | 0.00 | 0.00 | 73 | 41.0 |
| 20260502103122 | 73 | 300 | 1.7 | 3.5 | 5.53 | 0.00 | 0.00 | 73 | 40.7 |
| 20260502102723 | 74 | 310 | 1.7 | 3.5 | 5.53 | 0.00 | 0.00 | 74 | 39.2 |
| 20260502102206 | 74 | 317 | 1.7 | 2.6 | 5.53 | 0.00 | 0.00 | 74 | 39.8 |
| 20260502101538 | 74 | 293 | 1.7 | 2.6 | 5.53 | 0.00 | 0.00 | 74 | 40.0 |
| 20260502101116 | 74 | 302 | 0.9 | 1.7 | 5.51 | 0.00 | 0.00 | 74 | 40.5 |
| 20260502100538 | 74 | 306 | 0.9 | 1.7 | 5.51 | 0.00 | 0.00 | 74 | 40.6 |
| 20260502091531 | 70 | 357 | 0.9 | 1.7 | 5.53 | 0.00 | 0.00 | 70 | 46.8 |
| 20260502091112 | 71 | 71 | 2.6 | 6.1 | 5.53 | 0.00 | 0.00 | 71 | 45.7 |
| 20260502090601 | 73 | 295 | 1.7 | 2.6 | 5.53 | 0.00 | 0.00 | 73 | 43.7 |
| 20260502071301 | 75 | 309 | 3.5 | 4.3 | 5.57 | 0.00 | 0.00 | 75 | 40.2 |
| 20260502070752 | 77 | 318 | 2.6 | 4.3 | 5.57 | 0.00 | 0.00 | 77 | 37.8 |
| 20260502070028 | 77 | 323 | 2.6 | 5.2 | 5.57 | 0.00 | 0.00 | 77 | 36.6 |
| 20260502065536 | 77 | 310 | 2.6 | 3.5 | 5.57 | 0.00 | 0.00 | 77 | 35.7 |
| 20260502065109 | 77 | 319 | 2.6 | 2.6 | 5.57 | 0.00 | 0.00 | 77 | 35.3 |
| 20260502064549 | 77 | 318 | 2.6 | 3.5 | 5.57 | 0.00 | 0.00 | 77 | 35.3 |
| 20260502064031 | 76 | 316 | 1.7 | 3.5 | 5.58 | 0.00 | 0.00 | 76 | 35.4 |
| 20260502063617 | 76 | 319 | 1.7 | 3.5 | 5.58 | 0.00 | 0.00 | 76 | 35.2 |
| 20260502063157 | 77 | 310 | 1.7 | 4.3 | 5.58 | 0.00 | 0.00 | 77 | 34.3 |
| 20260502062830 | 77 | 316 | 2.6 | 4.3 | 5.58 | 0.00 | 0.00 | 77 | 34.4 |
| 20260502062315 | 77 | 305 | 3.5 | 5.2 | 5.58 | 0.00 | 0.00 | 77 | 33.6 |
| 20260502061345 | 78 | 296 | 3.5 | 5.2 | 5.59 | 0.00 | 0.00 | 78 | 31.9 |
| 20260502060522 | 79 | 286 | 2.6 | 7.0 | 5.59 | 0.00 | 0.00 | 79 | 30.0 |
| 20260502055816 | 77 | 274 | 4.3 | 6.1 | 5.60 | 0.00 | 0.00 | 77 | 30.6 |
| 20260502054942 | 78 | 301 | 1.7 | 4.3 | 5.61 | 0.00 | 0.00 | 78 | 30.2 |
| 20260502054104 | 79 | 302 | 3.5 | 5.2 | 5.61 | 0.00 | 0.00 | 79 | 29.6 |
| 20260502053416 | 80 | 326 | 2.6 | 3.5 | 5.62 | 0.00 | 0.00 | 80 | 27.0 |
| 20260502052607 | 82 | 335 | 1.7 | 4.3 | 5.62 | 0.00 | 0.00 | 82 | 25.8 |
| 20260502051622 | 83 | 343 | 0.9 | 2.6 | 5.63 | 0.00 | 0.00 | 83 | 24.2 |
| 20260502050910 | 84 | 344 | 2.6 | 6.1 | 5.65 | 0.00 | 0.00 | 84 | 23.3 |
| 20260502050041 | 83 | 349 | 2.6 | 5.2 | 5.65 | 0.00 | 0.00 | 83 | 23.4 |
| 20260502045418 | 82 | 278 | 3.5 | 5.2 | 5.65 | 0.00 | 0.00 | 82 | 24.2 |
| 20260502044633 | 82 | 280 | 3.5 | 5.2 | 5.65 | 0.00 | 0.00 | 82 | 23.7 |
| 20260502044030 | 83 | 306 | 2.6 | 4.3 | 5.65 | 0.00 | 0.00 | 83 | 23.3 |
| 20260502043503 | 85 | 337 | 2.6 | 4.3 | 5.64 | 0.00 | 0.00 | 85 | 21.2 |
| 20260502042835 | 85 | 335 | 2.6 | 5.2 | 5.64 | 0.00 | 0.00 | 86 | 20.8 |
| 20260502042103 | 86 | 328 | 3.5 | 5.2 | 5.64 | 0.00 | 0.00 | 86 | 20.2 |
| 20260502041229 | 85 | 332 | 4.3 | 7.8 | 5.64 | 0.00 | 0.00 | 85 | 20.4 |
| 20260502040622 | 82 | 325 | 5.2 | 7.8 | 5.62 | 0.00 | 0.00 | 82 | 22.5 |
| 20260502040030 | 82 | 318 | 4.3 | 7.0 | 5.62 | 0.00 | 0.00 | 82 | 24.1 |
| 20260502035609 | 81 | 313 | 3.5 | 5.2 | 5.62 | 0.00 | 0.00 | 81 | 26.0 |
| 20260502035104 | 81 | 316 | 2.6 | 5.2 | 5.62 | 0.00 | 0.00 | 81 | 27.5 |
| 20260502034553 | 82 | 315 | 3.5 | 5.2 | 5.62 | 0.00 | 0.00 | 82 | 26.2 |
| 20260502034031 | 81 | 357 | 2.6 | 6.1 | 5.62 | 0.00 | 0.00 | 82 | 27.6 |
| 20260502033532 | 82 | 298 | 2.6 | 4.3 | 5.62 | 0.00 | 0.00 | 82 | 28.0 |
| 20260502033030 | 83 | 286 | 3.5 | 6.1 | 5.63 | 0.00 | 0.00 | 83 | 27.3 |
| 20260502032558 | 84 | 289 | 2.6 | 4.3 | 5.73 | 0.00 | 0.00 | 84 | 26.4 |
| 20260502032127 | 84 | 284 | 4.3 | 6.1 | 6.11 | 0.00 | 0.00 | 84 | 25.7 |
| 20260502031531 | 82 | 293 | 3.5 | 5.2 | 6.89 | 0.00 | 0.00 | 82 | 27.9 |
| 20260502031112 | 82 | 299 | 5.2 | 8.7 | 8.18 | 0.00 | 0.00 | 82 | 28.9 |
| 20260502030600 | 80 | 303 | 4.3 | 7.0 | 1.03 | 0.00 | 0.00 | 80 | 31.8 |
| 20260502030032 | 82 | 316 | 5.2 | 7.0 | 1.44 | 0.00 | 0.00 | 82 | 32.9 |
| 20260502025606 | 85 | 334 | 2.6 | 7.0 | 2.02 | 0.00 | 0.00 | 85 | 31.1 |
| 20260502025118 | 85 | 6 | 1.7 | 3.5 | 2.72 | 0.00 | 0.00 | 85 | 31.2 |
| 20260502024552 | 85 | 1 | 1.7 | 3.5 | 3.30 | 0.00 | 0.00 | 85 | 30.4 |
| 20260502024052 | 85 | 48 | 1.7 | 2.6 | 4.15 | 0.00 | 0.00 | 86 | 29.9 |
| 20260502023531 | 86 | 130 | 2.6 | 3.5 | 5.30 | 0.00 | 0.00 | 86 | 28.9 |
| 20260502023030 | 87 | 140 | 3.5 | 5.2 | 6.57 | 0.00 | 0.00 | 87 | 28.1 |
| 20260502022624 | 87 | 148 | 4.3 | 5.2 | 8.09 | 0.00 | 0.00 | 87 | 27.2 |
| 20260502022134 | 87 | 147 | 3.5 | 5.2 | 9.77 | 0.00 | 0.00 | 87 | 27.1 |
| 20260502021533 | 87 | 149 | 2.6 | 4.3 | 1.15 | 0.00 | 0.00 | 87 | 27.3 |
| 20260502021110 | 88 | 166 | 1.7 | 3.5 | 1.35 | 0.00 | 0.00 | 88 | 26.3 |
| 20260502020534 | 89 | 157 | 3.5 | 5.2 | 1.55 | 0.00 | 0.00 | 89 | 25.8 |
| 20260502020031 | 89 | 137 | 4.3 | 6.1 | 1.75 | 0.00 | 0.00 | 89 | 22.6 |
| 20260502015612 | 90 | 128 | 2.6 | 3.5 | 1.95 | 0.00 | 0.00 | 90 | 22.2 |
| 20260502015120 | 90 | 128 | 3.5 | 5.2 | 2.16 | 0.00 | 0.00 | 90 | 21.4 |
| 20260502014550 | 90 | 131 | 2.6 | 4.3 | 2.41 | 0.00 | 0.00 | 90 | 21.3 |
| 20260502014032 | 90 | 135 | 3.5 | 7.0 | 2.65 | 0.00 | 0.00 | 90 | 21.1 |
| 20260502013551 | 90 | 135 | 3.5 | 7.8 | 2.87 | 0.00 | 0.00 | 90 | 21.1 |
| 20260502013031 | 91 | 131 | 4.3 | 7.8 | 3.08 | 0.00 | 0.00 | 91 | 20.6 |
| 20260502012618 | 91 | 137 | 4.3 | 7.8 | 3.25 | 0.00 | 0.00 | 91 | 20.5 |
| 20260502012057 | 91 | 131 | 7.0 | 10.4 | 3.47 | 0.00 | 0.00 | 91 | 21.0 |
| 20260502011532 | 92 | 126 | 7.0 | 9.6 | 3.70 | 0.00 | 0.00 | 92 | 21.3 |
| 20260502011051 | 93 | 124 | 7.0 | 10.4 | 3.92 | 0.00 | 0.00 | 93 | 20.0 |
| 20260502010533 | 93 | 139 | 4.3 | 7.0 | 4.01 | 0.00 | 0.00 | 93 | 17.2 |
| 20260502010029 | 93 | 144 | 5.2 | 7.8 | 4.24 | 0.00 | 0.00 | 93 | 16.9 |
| 20260502005544 | 93 | 149 | 5.2 | 7.8 | 4.48 | 0.00 | 0.00 | 93 | 17.8 |
| 20260502005051 | 93 | 151 | 5.2 | 7.8 | 4.71 | 0.00 | 0.00 | 93 | 18.3 |
| 20260502004529 | 93 | 144 | 5.2 | 7.8 | 4.94 | 0.00 | 0.00 | 93 | 18.0 |
| 20260502004050 | 93 | 123 | 6.1 | 7.8 | 5.17 | 0.00 | 0.00 | 93 | 17.5 |
| 20260502003533 | 93 | 125 | 5.2 | 7.8 | 5.40 | 0.00 | 0.00 | 93 | 17.8 |
| 20260502003058 | 93 | 119 | 6.1 | 8.7 | 5.65 | 0.00 | 0.00 | 93 | 18.1 |
| 20260502002706 | 93 | 123 | 6.1 | 9.6 | 5.93 | 0.00 | 0.00 | 93 | 17.0 |
| 20260502002130 | 93 | 124 | 6.1 | 9.6 | 6.16 | 0.00 | 0.00 | 93 | 15.8 |
| 20260502001531 | 93 | 122 | 7.8 | 10.4 | 6.38 | 0.00 | 0.00 | 93 | 15.6 |
| 20260502001050 | 93 | 136 | 6.1 | 9.6 | 6.61 | 0.00 | 0.00 | 93 | 16.0 |
| 20260502000533 | 93 | 134 | 6.1 | 10.4 | 6.98 | 0.00 | 0.00 | 93 | 16.5 |
| 20260502000032 | 93 | 148 | 7.0 | 10.4 | 7.19 | 0.00 | 0.00 | 93 | 16.5 |
| 20260501235624 | 93 | 151 | 7.0 | 10.4 | 7.41 | 0.00 | 0.00 | 93 | 16.9 |